NETSAT-3

Last updated on Tue Jul 01 2025 00:03:44 GMT+0000 (Coordinated Universal Time)

1 46505U 20068V 25181.47561136 .00008497 00000+0 30134-3 0 9997 2 46505 97.8462 159.3826 0008483 131.5824 228.6143 15.29319039261703
UTC large
Height (km)
Speed (km/s)
/
Latitude / Longitude
Inclination (degrees)
Orbital Period (minutes)
Azimuth
Elevation
Range (km)
Doppler Factor

Next 0 passes for location: London (51.5072 / 0.1276)

Sorry there are no passes over London.